Skip Page Navigation
NASA JPL Caltech
NASA Logo - Jet Propulsion Laboratory + View the NASA Portal
+ Center for Near-Earth Object Studies
JPL Home Earth Solar System Stars & Galaxies Technology
JPL Solar System Dynamics
BODIES ORBITS EPHEMERIDES TOOLS PHYSICAL DATA DISCOVERY FAQ SITE MAP
JPL Small-Body Database Browser
Search: [ help ]  
86662 (2000 FA6)
Classification: Main-belt Asteroid          SPK-ID: 2086662
Ephemeris | Orbit Diagram | Orbital Elements | Mission Design | Physical Parameters | Discovery Circumstances | Close-Approach Data ]

[ show orbit diagram ]
Orbital Elements at Epoch 2459000.5 (2020-May-31.0) TDB
Reference: JPL 22 (heliocentric ecliptic J2000)
 Element Value Uncertainty (1-sigma)   Units 
e .2274032681806651 8.4339e-08  
a 2.47089582064395 1.7445e-08 au
q 1.909006035695569 2.0132e-07 au
i 8.458553896573957 7.5368e-06 deg
node 14.86825208699096 3.171e-05 deg
peri 339.9657899478208 3.4358e-05 deg
M 280.9962551259512 2.0733e-05 deg
tp 2459311.833071442041
(2021-Apr-07.33307144)
8.4584e-05 TDB
period 1418.665734109409
3.88
1.5024e-05
4.113e-08
d
yr
n .253759565304505 2.6874e-09 deg/d
Q 3.032785605592331 2.1412e-08 au
  Orbit Determination Parameters
   # obs. used (total)      572  
   data-arc span      6956 days (19.04 yr)  
   first obs. used      2000-03-25  
   last obs. used      2019-04-11  
   planetary ephem.      DE431  
   SB-pert. ephem.      SB431-N16  
   condition code      0  
   norm. resid. RMS      .58424  
   source      ORB  
   producer      Otto Matic  
   solution date      2019-Jul-13 09:53:53  

Additional Information
 Earth MOID = .907385 au 
 Jupiter MOID = 2.41685 au 
 T_jup = 3.433 
[ show covariance matrix ]

Ephemeris | Orbit Diagram | Orbital Elements | Mission Design | Physical Parameters | Discovery Circumstances | Close-Approach Data ]

Physical Parameter Table
Parameter Symbol Value Units Sigma Reference Notes
absolute magnitude H 15.8   n/a MPO267964  
diameter diameter 1.626 km 0.188 urn:nasa:pds:neowise_diameters_albedos::2.0[mainbelt] (http://adsabs.harvard.edu/abs/2011ApJ...741...68M)  
geometric albedo albedo 0.320   0.094 urn:nasa:pds:neowise_diameters_albedos::2.0[mainbelt] (http://adsabs.harvard.edu/abs/2011ApJ...741...68M)  

86662 (2000 FA6)          Discovered 2000-Mar-25 by Spacewatch at Kitt Peak
Reference: 20040830/Numbers.arcLast Updated: 2004-09-06

[ hide close-approach data ]
Close-Approach Data   ...sorted by Date/Time (TDB)
Date/Time (TDB) Time Uncertainty
(days_HH:MM)
Body Nominal Distance (au) Minimum Distance (au) Maximum Distance (au) V-relative (km/s) V-infinity (km/s) JD (TDB) Time Uncertainty (minutes) Semi-major axis (km) Semi-minor axis (km) range-LOV angle (deg) N-sigma BP Orbit Ref. Reference Modified
2117-Jan-06 06:56 00:06 Hygie 0.0354495253903902 0.0354289132146419 0.0354701382637133 4.25901877346513 4.25901851755796 2494283.788814114 5.88485119795702 1055.58242987451 42.7959329867644 13.567799881963 29427.2192963138 T 22 CATAB v2.0e-lin.ifort 2019-Jul-13 09:53:55 2019-Jul-13 09:53
2153-Nov-03 21:57 < 00:01 Eunom 0.0218307799899672 0.02180120756552 0.0218603653713244 5.43522817479801 5.43522805649199 2507734.414382824 0.642414749615928 1696.00864180724 41.7258877007956 29.6429519394915 38722.8312952159 T 22 CATAB v2.0e-lin.ifort 2019-Jul-13 09:53:55 2019-Jul-13 09:53
Ephemeris | Orbit Diagram | Orbital Elements | Mission Design | Physical Parameters | Discovery Circumstances | Close-Approach Data ]
ABOUT SSD CREDITS/AWARDS PRIVACY/COPYRIGHT GLOSSARY LINKS
FirstGov 2020-Oct-20 17:54 UT
(server date/time)  
NASA Home Page
Site Manager:   Ryan S. Park
Webmaster  Alan B. Chamberlin